STARLINK-4727, 53803

Orbit data source: Space-Track

STARLINK-4727, 53803 is a payload satellite owned by SpaceX/Seattle (US) in LEO that was launched on Sun, 11 Sep 2022 UTC via an FALCON 9 launch vehicle from the Air Force Eastern Test Range (AFETR). Payload-class satellites include a variety of spacecraft equipped with specific instruments for various scientific and technological missions. These include communications satellites like Starlink; space stations such as the ISS; scientific satellites like the Hubble; Earth observation satellites from companies like Planet Labs, Umbra, and HawkEye 360; GPS; miniature CubeSats for education and research; and military/defense satellites.

Loading next visibility...
Identifier
53803, 2022-111AG
Orbit
LEO
Country
Flag of USUS
Related business
Manufacturer
SpaceX/Seattle
Mission
Operational Commercial Communications
Bus & Motor
STARLINK, Unknown motor
Mass
305 kg wet, ~290 kg dry
Launch date (UTC)
2022-09-11 (3 years ago)
Launch vehicle
FALCON 9
Launch site
Air Force Eastern Test Range (AFETR)
Object type
Payload
Rocket body
Debris
Shape & HBR
Box + 1 Pan, 4.4 m
Radar Cross Section
13.562 m², Large (>1 m²)

Expand to show TLE details & history
Last TLE update: 16 hours ago

TLE from 16 hours ago
0 STARLINK-4727
1 53803U 22111AG  25261.11790722  .00000133  00000-0  26447-4 0  9995
2 53803  53.2173 303.8718 0001215  84.8305 275.2825 15.08838793167972
Epoch: 2025-09-18T02:49Z
TLE epoch observation values (Epoch: 2025-09-18T02:49:47.183Z)
Latitude
-0.0001°
Longitude
-95.85897°
Altitude
540.567 km
Speed
7.593 km/s
True Right ascension
20h 15m 29s
True Declination
0° 00' 00"
Sunlit
Object was in full shadow at epoch
Visualization orbit readout
Latitude
Unknown
Longitude
Unknown
Altitude
Unknown
Speed
Unknown
Apparent Right ascension
Unknown
Apparent Declination
Unknown
Sunlit
N/A
Visualization observer readout
Local Sidereal Time
12:00:16
Azimuth
Unknown
Elevation
Unknown
Doppler factor
Unknown
Orbital elements
Apogee altitude
540.833 km
Perigee altitude
539.151 km
Semi-major axis
6,918.129 km
Eccentricity
0.00012
Inclination
53.2173°
RAAN
303.8718°
Arg. of periapsis
84.8305°
True anomaly
275.26864°
Mean anomaly
275.2825°
Eccentric anomaly
275.27557°
Mean motion
3.7719 °/min
Orbital period
95.44 mins
BSTAR
0.000026447
Loading maneuver chart data...
Computing Atmospheric mass density...
Loading historical data...
Loading historical data...
Loading historical data...
Loading historical data...
Loading historical data...
Loading historical data...
Loading historical data...

Documentation

Showing up to 5 results
|